AirNav   Air Wisconsin pilot careers
 
 1384 users online  

CO38 Comanche Airfield LLC Airport
Strasburg, Colorado, USA


FAA INFORMATION EFFECTIVE 09 NOVEMBER 2017

Location

FAA Identifier: CO38
Lat/Long: 39-44-49.9000N / 104-18-46.8000W
39-44.831667N / 104-18.780000W
39.7471944 / -104.3130000
(estimated)
Elevation: 5350 ft. / 1631 m (estimated)
Variation: 10E (1995)
From city: 1 mile E of STRASBURG, CO
Time zone: UTC -7 (UTC -6 during Daylight Saving Time)
Zip code: 80136

Airport Operations

Airport use: Private use. Permission required prior to landing
Activation date: 03/2000
Control tower: no
ARTCC: DENVER CENTER
FSS: DENVER FLIGHT SERVICE STATION
Attendance: UNATNDD
Wind indicator: yes
Segmented circle: no

Airport Communications

WX AWOS-3 at FTG (11 nm W): 119.025 (303-261-9104)
WX ASOS at DEN (18 nm W): PHONE 303-342-0838

Nearby radio navigation aids

VOR radial/distance  VOR name  Freq  Var
FQFr065/14.6FALCON VORTAC116.3011E
DENr096/16.5DENVER VOR/DME117.9008E
DVVr114/16.9MILE HIGH VORTAC114.7008E
BJCr094/39.3JEFFCO VOR/DME115.4011E

 
NDB name  Hdg/Dist  Freq  Var  ID
SKIPI108/6.232108EFT ..-. -

Airport Services

Runway Information

Runway 17/35

Dimensions: 3000 x 80 ft. / 914 x 24 m
Surface: dirt
RUNWAY 17  RUNWAY 35
Traffic pattern: leftleft
Obstructions: none35 ft. pline, 1700 ft. from runway

Airport Ownership and Management from official FAA records

Ownership: Privately-owned
Owner: COMANCHE AIRFIELD LLC
P.O. BOX 448
STRASBURG, CO 80136
Phone 303-622-9654
Manager: MARCUS LEE REES
P.O. BOX 448
STRASBURG, CO 80136
Phone 303-622-9654

Airport Operational Statistics

Aircraft based on the field: 11
Single engine airplanes: 8
Multi engine airplanes: 1
Ultralights: 2
    

Instrument Procedures

There are no published instrument procedures at CO38.

Some nearby airports with instrument procedures:

KFTG - Front Range Airport (11 nm W)
KDEN - Denver International Airport (18 nm NW)
KBKF - Buckley Air Force Base (20 nm W)
KAPA - Centennial Airport (27 nm SW)
KEIK - Erie Municipal Airport (37 nm NW)
 
Loc | Ops | Rwys | IFR | FBO | Links
Com | Nav | Svcs | Stats | Notes


 
Area around CO38 (Comanche Airfield LLC Airport)
 
Road maps at: MapQuest Bing Google
 
Aerial photo
No photo
 
Sectional chart

 
Airport distance calculator
Flying to Comanche Airfield LLC Airport? Find the distance to fly.

From to CO38

Sunrise and sunset
Times for 20-Nov-2017
 Local
(UTC-7)
 Zulu
(UTC)
Morning civil twilight06:1913:19
Sunrise06:4913:49
Sunset16:3723:37
Evening civil twilight17:0600:06

Current date and time
Zulu (UTC)  20-Nov-2017 21:01:09
Local (UTC-7)  20-Nov-2017 14:01:09
 
METAR
KFTG 
11nm W 
201950Z 25013G20KT 10SM BKN200 40/M15 A2979
KDEN 
16nm W 
202053Z 28018KT 10SM FEW140 SCT220 20/M14 A2977 RMK AO2 SLP030 T02001139 56013
KBKF 
20nm W 
201958Z 28016G23KT 10SM FEW080 FEW150 BKN220 19/M13 A2978 RMK AO2A PK WND 25030/02 SLP042 T01881135
TAF
KDEN 
16nm W 
201724Z 2018/2124 21012KT P6SM FEW140 BKN220 FM202000 25014G24KT P6SM FEW130 BKN220 FM202300 30012KT P6SM FEW080 SCT130 BKN220 FM210500 25012KT P6SM BKN220 FM210700 20012KT P6SM SCT120 BKN220 FM211100 12006KT P6SM SCT070 BKN110 FM211500 03015G22KT P6SM BKN060 BKN110
KBKF 
20nm W 
201739Z 2017/2123 24015G25KT 9999 SKC 510009 QNH2979INS TEMPO 2018/2021 24025G35KT 530009 BECMG 2021/2022 30009KT 9999 FEW200 QNH2988INS BECMG 2106/2107 22012G18KT 9999 SCT150 BKN200 QNH2991INS BECMG 2109/2110 22015G25KT 9999 FEW150 SCT200 QNH2994INS TX17/2023Z TN09/2112Z
NOTAMs
Click for the latest NOTAMs
NOTAMs are issued by the DoD/FAA and will open in a separate window not controlled by AirNav.

 

 
 

Would you like to see your business listed on this page?

 If your business provides an interesting product or service to pilots, flight crews, aircraft, or users of the Comanche Airfield LLC Airport, you should consider listing it here.  To start the listing process, click on the button below
 
Add a business
 

Other Pages about Comanche Airfield LLC Airport

Update a link
 
Copyright © AirNav, LLC. All rights reserved. Privacy Policy  Contact